Flag Weather past 2 weeks in French Lick, Indiana, U.S.A.

Now
37 °F

Clear.


Feels Like: 29 °F
Forecast: 35 / 50 °F
Wind: 13 mph from South

Location: Huntingburg Airport

Current Time: Nov 29, 2014 at 4:58:02 AM

Latest Report: Nov 29, 2014 at 4:35 AM


Visibility: 10 mi

Pressure: 30.00 "Hg

Humidity: 65%

Dew point: 27 °F

Location of French LickLocation

Historic Weather in French Lick — Graph

°F

French Lick temperature yesterday

Maximum temperature yesterday: 41 °F (at 3:15 PM)
Minimum temperature yesterday: 21 °F (at 1:15 AM)
Average temperature yesterday: 31 °F

Past Weeks' High & Low Weather Summary

 TemperatureHumidityPressure
High63 °F (Nov 22, 2:55 PM)94% (Nov 23, 5:55 PM)30.51 "Hg (Nov 23, 5:55 PM)
Low9 °F (Nov 18, 7:35 AM)39% (Nov 21, 2:15 PM)29.26 "Hg (Nov 23, 8:55 PM)
Average33 °F68%30.15 "Hg
* Reported Nov 14 3:15 AM — Nov 29 3:35 AM, French Lick, Weather by CustomWeather, © 2014

Note: Actual official high and low records may vary slightly from our data, if they occured in-between our weather recording intervals... More about our weather records

Advertising

French Lick weather history for previous 24 hours

 ConditionsComfort  
Time TempWeatherWind HumidityBarometerVisibility
3:35 AM
Nov 29
37 °FClear.12 mph65%30.02 "Hg10 mi
2:55 AM39 °FClear.13 mph61%30.02 "Hg10 mi
2:35 AM39 °FClear.13 mph61%30.02 "Hg10 mi
1:55 AM39 °FClear.10 mph61%30.03 "Hg10 mi
1:35 AM37 °FClear.12 mph65%30.04 "Hg10 mi
1:15 AM37 °FClear.10 mph65%30.04 "Hg10 mi
12:55 AM37 °FClear.10 mph60%30.04 "Hg10 mi
12:35 AM36 °FClear.9 mph65%30.04 "Hg10 mi
12:15 AM36 °FClear.8 mph65%30.04 "Hg10 mi
11:55 PM
Nov 28
36 °FClear.8 mph65%30.04 "Hg10 mi
11:35 PM36 °FClear.8 mph65%30.04 "Hg10 mi
11:15 PM36 °FClear.8 mph65%30.04 "Hg10 mi
10:55 PM37 °FClear.8 mph56%30.05 "Hg10 mi
10:35 PM37 °FClear.7 mph56%30.05 "Hg10 mi
9:55 PM37 °FClear.8 mph56%30.06 "Hg10 mi
9:35 PM37 °FClear.7 mph56%30.07 "Hg10 mi
9:15 PM37 °FClear.7 mph56%30.07 "Hg10 mi
8:55 PM37 °FClear.7 mph56%30.08 "Hg10 mi
8:35 PM37 °FClear.8 mph56%30.09 "Hg10 mi
8:15 PM37 °FClear.8 mph56%30.09 "Hg10 mi
7:55 PM37 °FClear.8 mph56%30.10 "Hg10 mi
7:35 PM37 °FClear.8 mph56%30.10 "Hg10 mi
6:55 PM37 °FClear.8 mph56%30.12 "Hg10 mi
6:35 PM37 °FClear.8 mph56%30.12 "Hg10 mi
6:15 PM37 °FClear.10 mph56%30.12 "Hg10 mi
5:55 PM37 °FClear.9 mph60%30.13 "Hg10 mi
5:35 PM39 °FClear.10 mph56%30.13 "Hg10 mi
5:15 PM39 °FSunny.9 mph56%30.13 "Hg10 mi
4:55 PM39 °FSunny.12 mph56%30.14 "Hg10 mi
4:35 PM41 °FSunny.14 mph53%30.14 "Hg10 mi
3:55 PM41 °FSunny.12 mph57%30.16 "Hg10 mi
3:35 PM41 °FSunny.14 mph57%30.17 "Hg10 mi
3:15 PM41 °FSunny.13 mph53%30.17 "Hg10 mi
2:55 PM39 °FSunny.14 mph61%30.18 "Hg10 mi
2:35 PM39 °FSunny.13 mph61%30.20 "Hg10 mi
2:15 PM39 °FSunny.13 mph61%30.22 "Hg10 mi
1:55 PM37 °FSunny.13 mph65%30.24 "Hg10 mi
1:35 PM37 °FSunny.13 mph60%30.25 "Hg10 mi
1:15 PM37 °FSunny.8 mph65%30.27 "Hg10 mi
12:55 PM36 °FSunny.12 mph65%30.29 "Hg10 mi
12:35 PM36 °FSunny.13 mph65%30.30 "Hg10 mi
12:15 PM36 °FSunny.13 mph65%30.33 "Hg10 mi
11:55 AM34 °FSunny.12 mph70%30.34 "Hg10 mi
11:35 AM34 °FSunny.10 mph70%30.36 "Hg10 mi
10:55 AM30 °FSunny.12 mph75%30.37 "Hg10 mi
10:35 AM30 °FSunny.10 mph75%30.38 "Hg10 mi
10:15 AM30 °FSunny.10 mph75%30.39 "Hg10 mi
9:55 AM28 °FSunny.8 mph74%30.38 "Hg10 mi
9:35 AM28 °FSunny.10 mph74%30.38 "Hg10 mi
9:15 AM27 °FSunny.6 mph74%30.39 "Hg10 mi
8:55 AM27 °FSunny.6 mph74%30.39 "Hg10 mi
8:35 AM27 °FPassing clouds.7 mph74%30.39 "Hg10 mi
8:15 AM25 °FSunny.6 mph80%30.40 "Hg10 mi
7:55 AM25 °FSunny.6 mph80%30.42 "Hg10 mi
7:35 AM25 °FClear.6 mph80%30.42 "Hg10 mi
7:15 AM25 °FPassing clouds.5 mph80%30.42 "Hg10 mi
6:55 AM25 °FPassing clouds.3 mph80%30.42 "Hg10 mi
6:35 AM25 °FClear.5 mph80%30.42 "Hg10 mi
6:15 AM25 °FClear.No wind74%30.42 "Hg10 mi
5:55 AM25 °FClear.No wind74%30.42 "Hg10 mi
5:35 AM25 °FClear.No wind74%30.42 "Hg10 mi
5:15 AM25 °FPassing clouds.No wind74%30.43 "Hg10 mi
4:55 AM25 °FPassing clouds.No wind74%30.43 "Hg10 mi
4:35 AM25 °FPassing clouds.3 mph74%30.44 "Hg10 mi
4:15 AM23 °FPassing clouds.No wind80%30.43 "Hg10 mi
Weather by CustomWeather, © 2014

See weather overviewHow to use our weather pages